User: anonymous
Location: Mentone
(34.5413°N, 85.5351°W)
Time: 16:55:43
(UTC-05:00)
Language:

AO-Echo - Orbit

View from above orbital plane
View from above orbital plane
View from above satellite
View from above satellite

Ground track
Ground track

The orbit data is extracted from the following two-line orbital elements,

1 28375U 04025K   14273.44244535  .00000540  00000-0  17260-3 0  9576
2 28375 098.2605 216.8176 0083582 035.1233 325.5427 14.41439272539070
Epoch (UTC): 30 September 2014 10:37:07
Eccentricity: 0.0083582
inclination: 98.2605°
perigee height: 694 km
apogee height: 813 km
right ascension of ascending node: 216.8176°
argument of perigee: 35.1233°
revolutions per day: 14.41439272
mean anomaly at epoch: 325.5427°
orbit number at epoch: 53907

The dashed part of the orbit path shows where the satellite is in the earth's shadow,  

DLR